{"data":{"norad_id":43800,"epoch":"2026-05-25T04:41:44.985120Z","epoch_age_seconds":64979,"freshness":"FRESH","line1":"1 43800U 18099AU  26145.19565955  .00004222  00000+0  21437-3 0  9994","line2":"2 43800  97.4375 199.4469 0010883  32.9416 327.2493 15.17391943409331","mean_motion":15.17391943,"eccentricity":0.0010883,"inclination_deg":97.4375,"raan_deg":199.4469,"arg_perigee_deg":32.9416,"mean_anomaly_deg":327.2493,"bstar":0.00021437,"rev_number":40933,"period_min":94.899673524891,"perigee_km":506.2259517227,"apogee_km":521.2267815265,"semimajor_km":6891.8633666246,"source":"CELESTRAK","updated_at":"2026-05-25T13:37:55.898961Z"}}